Effective Sunday, March 17, 2024, the National Weather Service National Data Buoy Center will discontinue its Dial-A-Buoy Interactive Voice Response system. For more information, see Service Change Notice 24-06 (PDF).

Station GBTF1 - Garfield Bight, FL Image indicating link to RSS feed of recent meteorological observations for station GBTF1


Conditions at GBTF1 as of
(5:00 pm EST)
2200 GMT on 03/01/2024:
Note: This report is more than two hours old
     

Click on the graph icon in the table below to see a time series plot of the last five days of that observation.

5-day plot - Water Temperature Water Temperature (WTMP): 80.6 °F
5-day plot - Salinity Salinity (SAL): 28.79 psu
5-day plot - Tide (above MLLW) Tide (above MLLW) (TIDE):-0.66 ft
Previous observations
TIME
(EST)
5-day plot - Wind Direction
WDIR
 
5-day plot - Wind Speed
WSPD
kts
5-day plot - Wind Gust
GST
kts
5-day plot - Wave Height
WVHT
ft
5-day plot - Dominant Wave Period
DPD
sec
5-day plot - Average Wave Period
APD
sec
5-day plot - Mean Wave Direction
MWD
 
5-day plot - Atmospheric Pressure
PRES
in
5-day plot - Pressure Tendency
PTDY
in
5-day plot - Air Temperature
ATMP
°F
5-day plot - Water Temperature
WTMP
°F
5-day plot - Dew Point
DEWP
°F
5-day plot - Salinity
SAL
psu
5-day plot - Visibility
VIS
nmi
5-day plot - Tide (above MLLW)
TIDE
ft
2024-03-01 04:00 pm---------- 80.4- 29.04--0.66
2024-03-01 03:00 pm---------- 79.9- 29.13--0.67
2024-03-01 02:00 pm---------- 79.0- 29.67--0.70
2024-03-01 01:00 pm---------- 77.5- 29.99--0.72
2024-03-01 12:00 pm---------- 76.3- 29.98--0.74
2024-03-01 11:00 am---------- 74.8- 30.01--0.78
2024-03-01 10:00 am---------- 74.1- 30.00--0.78
2024-03-01 09:00 am---------- 73.8- 29.93--0.78
2024-03-01 08:00 am---------- 73.6- 29.91--0.78
2024-03-01 07:00 am---------- 73.9- 29.88--0.79
2024-03-01 06:00 am---------- 74.5- 29.88--0.80
2024-03-01 05:00 am---------- 75.0- 29.78--0.81
2024-03-01 04:00 am---------- 75.6- 29.69--0.83
2024-03-01 03:00 am---------- 75.9- 29.67--0.85
2024-03-01 02:00 am---------- 76.5- 29.65--0.84
2024-03-01 01:00 am---------- 76.8- 29.62--0.82
2024-03-01 12:00 am---------- 77.4- 29.57--0.82
2024-02-29 11:00 pm---------- 77.9- 29.52--0.79
2024-02-29 10:00 pm---------- 78.4- 29.50--0.78

Ocean Conditions at GBTF1 as of
(5:00 pm EST)
2200 GMT on 03/01/2024:
Note: This report is more than two hours old

These oceanographic data are displayed in rounded times.

     

Click on the graph icon in the table below to see a time series plot of the last five days of that observation.

Depth (DEPTH): 4.9 ft
5-day plot - Ocean Temperature Ocean Temperature (OTMP):80.55 °F
5-day plot - Salinity Salinity (SAL):28.79 psu
Previous observations
TIME
(EST)
DEPTH
ft
5-day plot - Ocean Temperature
OTMP
°F
5-day plot - Conductivity
COND
mS/cm
5-day plot - Salinity
SAL
psu
5-day plot - Oxygen Concentration
O2%
%
5-day plot - Oxygen Concentration
O2PPM
ppm
5-day plot - Chlorophyll
CLCON
ug/l
5-day plot - Turbidity
TURB
FTU
5-day plot - pH
PH
 
5-day plot - Eh
EH
mv
2024-03-01 04:00 pm 4.980.38-29.04------
2024-03-01 03:00 pm 4.979.84-29.13------
2024-03-01 02:00 pm 4.978.91-29.67------
2024-03-01 01:00 pm 4.977.58-29.99------
2024-03-01 12:00 pm 4.976.23-29.98------
2024-03-01 11:00 am 4.974.89-30.01------
2024-03-01 10:00 am 4.974.16-30.00------
2024-03-01 09:00 am 4.973.71-29.93------
2024-03-01 08:00 am 4.973.62-29.91------
2024-03-01 07:00 am 4.973.96-29.88------
2024-03-01 06:00 am 4.974.50-29.88------
2024-03-01 05:00 am 4.974.97-29.78------
2024-03-01 04:00 am 4.975.49-29.69------
2024-03-01 03:00 am 4.975.97-29.67------
2024-03-01 02:00 am 4.976.48-29.65------
2024-03-01 01:00 am 4.976.86-29.62------
2024-03-01 12:00 am 4.977.32-29.57------
2024-02-29 11:00 pm 4.977.81-29.52------
2024-02-29 10:00 pm 4.978.39-29.50------

Rainfall at GBTF1 as of
(5:00 pm EST)
2200 GMT on 03/01/2024:
Note: This report is more than two hours old
     

Click on the graph icon in the table below to see a time series plot of the last five days of that observation.

* indicates interpolated rain values

Previous observations
5-day plot - Hourly Rain Accmulation -------- Ten-minute Rain Rates (Centered at hour + minutes) ---------
   TIME
(EST)
  Hourly Accum
inches
0
inches/hour
10
inches/hour
20
inches/hour
30
inches/hour
40
inches/hour
50
inches/hour
2024-03-01 05:00 pm0.00- - - - - - 
2024-03-01 04:00 pm0.00- - - - - - 
2024-03-01 03:00 pm0.00- - - - - - 
2024-03-01 02:00 pm0.00- - - - - - 
2024-03-01 01:00 pm0.00- - - - - - 
2024-03-01 12:00 pm0.00- - - - - - 
2024-03-01 11:00 am0.00- - - - - - 
2024-03-01 10:00 am0.00- - - - - - 
2024-03-01 09:00 am0.00- - - - - - 
2024-03-01 08:00 am0.00- - - - - - 
2024-03-01 07:00 am0.00- - - - - - 
2024-03-01 06:00 am0.00- - - - - - 
2024-03-01 05:00 am0.00- - - - - - 
2024-03-01 04:00 am0.00- - - - - - 
2024-03-01 03:00 am0.00- - - - - - 
2024-03-01 02:00 am0.00- - - - - - 
2024-03-01 01:00 am0.00- - - - - - 
2024-03-01 12:00 am0.00- - - - - - 
2024-02-29 11:00 pm0.00- - - - - - 
2024-02-29 10:00 pm0.00- - - - - -